TimeMDT,TemperatureF,Dew PointF,Humidity,Sea Level PressureIn,VisibilityMPH,Wind Direction,Wind SpeedMPH,Gust SpeedMPH,PrecipitationIn,Events,Conditions,WindDirDegrees,DateUTC
1:53 AM,61.0,46.9,60,30.14,10.0,Calm,Calm,-,N/A,,Clear,0,2013-07-31 07:53:00
2:53 AM,59.0,39.9,49,30.15,10.0,Calm,Calm,-,N/A,,Clear,0,2013-07-31 08:53:00
3:53 AM,55.9,39.9,55,30.16,10.0,SE,3.5,-,N/A,,Clear,130,2013-07-31 09:53:00
4:53 AM,55.0,43.0,64,30.17,10.0,SE,3.5,-,N/A,,Clear,130,2013-07-31 10:53:00
5:53 AM,55.0,41.0,59,30.19,10.0,East,4.6,-,N/A,,Clear,100,2013-07-31 11:53:00
6:53 AM,55.9,41.0,57,30.20,10.0,SSW,3.5,-,N/A,,Clear,200,2013-07-31 12:53:00
7:53 AM,62.1,43.0,50,30.19,10.0,Calm,Calm,-,N/A,,Clear,0,2013-07-31 13:53:00
8:53 AM,66.9,45.0,45,30.20,10.0,North,4.6,-,N/A,,Clear,10,2013-07-31 14:53:00
9:53 AM,72.0,44.1,37,30.19,10.0,NNW,3.5,-,N/A,,Clear,330,2013-07-31 15:53:00
10:53 AM,77.0,45.0,32,30.16,10.0,Calm,Calm,-,N/A,,Clear,0,2013-07-31 16:53:00
11:53 AM,81.0,44.1,27,30.13,10.0,West,3.5,-,N/A,,Clear,280,2013-07-31 17:53:00
12:53 PM,82.9,37.9,20,30.10,10.0,Calm,Calm,-,N/A,,Clear,0,2013-07-31 18:53:00
1:53 PM,89.1,41.0,19,30.07,10.0,SE,11.5,-,N/A,,Clear,140,2013-07-31 19:53:00
2:53 PM,89.1,39.9,18,30.05,10.0,South,4.6,-,N/A,,Partly Cloudy,170,2013-07-31 20:53:00
3:53 PM,91.9,39.9,16,30.01,10.0,NNW,8.1,-,N/A,,Scattered Clouds,330,2013-07-31 21:53:00
4:53 PM,89.1,37.9,16,29.99,10.0,SE,6.9,-,N/A,,Partly Cloudy,140,2013-07-31 22:53:00
5:53 PM,91.9,36.0,14,29.96,10.0,West,13.8,18.4,N/A,,Mostly Cloudy,280,2013-07-31 23:53:00
6:53 PM,90.0,33.1,13,29.96,10.0,West,15.0,-,N/A,,Clear,280,2013-08-01 00:53:00
7:53 PM,86.0,35.1,16,29.96,10.0,West,6.9,-,N/A,,Clear,280,2013-08-01 01:53:00
8:53 PM,80.1,35.1,20,29.96,10.0,SSW,4.6,-,N/A,,Clear,200,2013-08-01 02:53:00
9:53 PM,75.9,37.9,25,29.97,10.0,SSE,9.2,-,N/A,,Clear,160,2013-08-01 03:53:00
10:53 PM,71.1,42.1,35,29.98,10.0,ESE,10.4,-,N/A,,Clear,120,2013-08-01 04:53:00
11:53 PM,70.0,41.0,35,29.97,10.0,Variable,3.5,-,N/A,,Clear,0,2013-08-01 05:53:00